DLH36E EDDF-LFPG

Flight info

Callsign DLH36E
Flight time N/A
Altitude 24000
Route SOBRA2L/18 SOBRA Y180 DIK UN857 TOLVU/N0338F230 DCT RAPOR DCT VEDUS
Aircraft A20N/M-SDE2E3FGIJ1LORWXYZ/HB1

Departure

Time 2026-05-01 15:12
Airport Frankfurt Main Airport (EDDF)

Arrival

Time N/A
Airport Charles de Gaulle International Airport (LFPG)
Time Latitude Longitude Altitude Speed Heading
2026-05-01 14:51 50.04389 8.56169 365 ft 0 kts 155°
2026-05-01 14:58 50.04395 8.56165 358 ft 1 kts 155°
2026-05-01 14:58 50.04407 8.56156 359 ft 2 kts 155°
2026-05-01 14:59 50.04421 8.56147 361 ft 2 kts 171°
2026-05-01 14:59 50.04436 8.56146 360 ft 2 kts 191°
2026-05-01 14:59 50.04450 8.56153 358 ft 2 kts 210°
2026-05-01 14:59 50.04462 8.56166 361 ft 2 kts 233°
2026-05-01 15:00 50.04468 8.56179 358 ft 0 kts 248°
2026-05-01 15:02 50.04467 8.56176 358 ft 2 kts 248°
2026-05-01 15:02 50.04446 8.56095 361 ft 8 kts 249°
2026-05-01 15:02 50.04395 8.56037 362 ft 11 kts 181°
2026-05-01 15:03 50.04316 8.56075 359 ft 13 kts 152°
2026-05-01 15:03 50.04285 8.56195 360 ft 13 kts 114°
2026-05-01 15:03 50.04234 8.56244 361 ft 8 kts 160°
2026-05-01 15:03 50.04169 8.56280 359 ft 11 kts 165°
2026-05-01 15:04 50.04110 8.56208 359 ft 13 kts 249°
2026-05-01 15:04 50.04075 8.56063 360 ft 15 kts 249°
2026-05-01 15:04 50.04041 8.55923 360 ft 15 kts 250°
2026-05-01 15:04 50.04002 8.55754 359 ft 19 kts 250°
2026-05-01 15:05 50.03976 8.55644 365 ft 1 kts 249°
2026-05-01 15:05 50.03968 8.55614 361 ft 5 kts 249°
2026-05-01 15:05 50.03951 8.55542 361 ft 9 kts 249°
2026-05-01 15:05 50.03924 8.55433 360 ft 13 kts 249°
2026-05-01 15:06 50.03887 8.55279 362 ft 17 kts 250°
2026-05-01 15:06 50.03841 8.55086 358 ft 21 kts 250°
2026-05-01 15:06 50.03793 8.54882 364 ft 14 kts 249°
2026-05-01 15:06 50.03766 8.54769 361 ft 7 kts 249°
2026-05-01 15:07 50.03746 8.54688 362 ft 8 kts 249°
2026-05-01 15:07 50.03722 8.54584 365 ft 12 kts 250°
2026-05-01 15:07 50.03687 8.54439 360 ft 16 kts 250°
2026-05-01 15:07 50.03644 8.54258 361 ft 20 kts 249°
2026-05-01 15:08 50.03592 8.54041 366 ft 23 kts 250°
2026-05-01 15:08 50.03537 8.53808 362 ft 15 kts 250°
2026-05-01 15:08 50.03508 8.53686 357 ft 14 kts 250°
2026-05-01 15:08 50.03469 8.53524 362 ft 18 kts 249°
2026-05-01 15:09 50.03429 8.53359 363 ft 14 kts 249°
2026-05-01 15:09 50.03392 8.53204 358 ft 10 kts 249°
2026-05-01 15:09 50.03380 8.53153 359 ft 7 kts 249°
2026-05-01 15:09 50.03360 8.53070 364 ft 10 kts 250°
2026-05-01 15:10 50.03332 8.52951 365 ft 14 kts 250°
2026-05-01 15:10 50.03284 8.52751 363 ft 3 kts 250°
2026-05-01 15:10 50.03273 8.52704 364 ft 7 kts 250°
2026-05-01 15:11 50.03251 8.52620 362 ft 10 kts 240°
2026-05-01 15:11 50.03131 8.52596 359 ft 36 kts 179°
2026-05-01 15:11 50.02627 8.52603 365 ft 105 kts 179°
2026-05-01 15:12 50.02062 8.52609 360 ft 139 kts 179°
2026-05-01 15:12 49.99928 8.52636 1420 ft 153 kts 175°
2026-05-01 15:12 49.98864 8.52648 2145 ft 152 kts 175°
2026-05-01 15:13 49.95193 8.52850 3308 ft 206 kts 173°
2026-05-01 15:14 49.92116 8.53129 4209 ft 227 kts 175°
2026-05-01 15:14 49.90558 8.53256 5223 ft 224 kts 175°
2026-05-01 15:14 49.87422 8.53325 7389 ft 230 kts 186°
2026-05-01 15:15 49.85870 8.52717 8329 ft 236 kts 199°
2026-05-01 15:15 49.84532 8.51933 8974 ft 251 kts 199°
2026-05-01 15:16 49.81064 8.49956 10414 ft 280 kts 198°
2026-05-01 15:16 49.77570 8.46585 11316 ft 330 kts 230°
2026-05-01 15:17 49.76269 8.39579 12785 ft 358 kts 274°
2026-05-01 15:18 49.77681 8.27934 15289 ft 374 kts 280°
2026-05-01 15:18 49.78179 8.23967 16106 ft 377 kts 280°
2026-05-01 15:19 49.79157 8.16225 17628 ft 385 kts 280°
2026-05-01 15:19 49.79902 8.10347 18730 ft 390 kts 279°
2026-05-01 15:19 49.80426 8.06193 19378 ft 394 kts 280°
2026-05-01 15:20 49.81482 7.97781 20743 ft 401 kts 280°
2026-05-01 15:20 49.82015 7.93508 21391 ft 405 kts 280°
2026-05-01 15:20 49.82547 7.89227 22129 ft 406 kts 280°
2026-05-01 15:21 49.83088 7.84877 22565 ft 416 kts 280°
2026-05-01 15:21 49.83634 7.80472 23263 ft 418 kts 280°
2026-05-01 15:21 49.84177 7.76072 23803 ft 424 kts 281°
2026-05-01 15:21 49.84729 7.71582 23945 ft 423 kts 281°
2026-05-01 15:22 49.85816 7.62707 24137 ft 419 kts 280°
2026-05-01 15:22 49.86347 7.58351 24229 ft 420 kts 280°
2026-05-01 15:22 49.86890 7.53880 24277 ft 421 kts 280°
2026-05-01 15:23 49.87430 7.49415 24285 ft 423 kts 280°
2026-05-01 15:23 49.87972 7.44929 24275 ft 421 kts 280°
2026-05-01 15:23 49.88506 7.40489 24277 ft 419 kts 280°
2026-05-01 15:23 49.89036 7.36065 24278 ft 418 kts 280°
2026-05-01 15:24 49.89566 7.31628 24286 ft 420 kts 280°
2026-05-01 15:24 49.90091 7.27212 24279 ft 422 kts 280°
2026-05-01 15:24 49.90621 7.22744 24277 ft 422 kts 280°
2026-05-01 15:24 49.91152 7.18253 24279 ft 424 kts 280°
2026-05-01 15:25 49.91677 7.13790 24283 ft 419 kts 280°
2026-05-01 15:25 49.92200 7.09330 24291 ft 420 kts 280°
2026-05-01 15:25 49.92720 7.04880 24291 ft 418 kts 279°
2026-05-01 15:25 49.93241 7.00414 24283 ft 423 kts 280°
2026-05-01 15:26 49.93762 6.95932 24263 ft 422 kts 279°
2026-05-01 15:26 49.94282 6.91440 24253 ft 423 kts 279°
2026-05-01 15:26 49.94798 6.86959 24253 ft 420 kts 279°
2026-05-01 15:26 49.95313 6.82479 24261 ft 422 kts 279°
2026-05-01 15:27 49.95820 6.78053 24255 ft 422 kts 279°
2026-05-01 15:27 49.96332 6.73573 24255 ft 424 kts 279°
2026-05-01 15:27 49.96844 6.69066 24255 ft 423 kts 279°
2026-05-01 15:28 49.97771 6.60023 24258 ft 421 kts 272°
2026-05-01 15:28 49.97634 6.55499 24232 ft 419 kts 260°
2026-05-01 15:28 49.96892 6.51137 24234 ft 419 kts 247°
2026-05-01 15:29 49.94564 6.42839 24237 ft 418 kts 245°
2026-05-01 15:29 49.93408 6.38704 24237 ft 416 kts 247°
2026-05-01 15:29 49.91589 6.30167 24248 ft 420 kts 251°
2026-05-01 15:30 49.89802 6.21599 24254 ft 418 kts 251°
2026-05-01 15:31 49.86273 6.04407 24255 ft 418 kts 251°
2026-05-01 15:31 49.84513 5.95866 24251 ft 418 kts 251°
2026-05-01 15:32 49.82746 5.87325 24254 ft 419 kts 250°
2026-05-01 15:32 49.80970 5.78772 24250 ft 415 kts 251°
2026-05-01 15:33 49.78311 5.66049 24248 ft 416 kts 250°
2026-05-01 15:34 49.75626 5.53282 24247 ft 417 kts 251°